Ellsworth AFB, SD

12:40 PM MST on January 18, 2017 (GMT -0700)
Ellsworth Air Force Base

Weather History for KRCA - November, 2012

Change the Weather History Date:

Sunday, November 25, 2012

  Actual Average Record
Temperature  
Mean Temperature 32 °F -  
Max Temperature 39 °F 41 °F 57 °F (1998)
Min Temperature 25 °F 21 °F -3 °F (2010)
Degree Days  
Heating Degree Days 32    
Moisture  
Dew Point 30 °F    
Average Humidity 91    
Maximum Humidity 100    
Minimum Humidity 75    
Precipitation  
Precipitation 0.06 in - - ()
Sea Level Pressure  
Sea Level Pressure 30.12 in    
Wind  
Wind Speed 5 mph (NNE)    
Max Wind Speed 12 mph    
Max Gust Speed -    
Visibility 6 miles    
Events Rain , Snow    
Averages and records for this station are not official NWS values.
T = Trace of Precipitation, MM = Missing Value Source: NWS Daily Summary

Daily Weather History Graph

Daily Weather History Graph

Search for Another Location

Airport or City:

Trip Planner

Search our weather history database for the weather conditions in past years. The results will help you decide how hot, cold, wet, or windy it might be!

Date:

Astronomy

Nov. 25, 2012 Rise Set
Actual Time 7:01 AM MST 4:17 PM MST
Civil Twilight 6:29 AM MST 4:49 PM MST
Nautical Twilight 5:53 AM MST 5:25 PM MST
Astronomical Twilight 5:18 AM MST 6:00 PM MST
Moon 2:39 PM MST (11/25) 4:13 AM MST (11/25)
Length of Visible Light 10h 20m
Length of Day
9h 16m
Waxing Gibbous, 93% of the Moon is Illuminated
Nov 25
Waxing Gibbous
Nov 28
Full
Dec 6
Last Quarter
Dec 13
New
Dec 19
First Quarter

Hourly Weather History & Observations

Time (MST) Temp. Windchill Dew Point Humidity Pressure Visibility Wind Dir Wind Speed Gust Speed Precip Events Conditions
12:55 AM 38.3 °F 32.5 °F 32.4 °F 79% 30.00 in 10.0 mi North 8.1 mph - N/A   Overcast
1:13 AM 39.2 °F 32.5 °F 32.0 °F 75% 30.00 in 10.0 mi North 10.4 mph - N/A   Light Drizzle
1:25 AM 37.4 °F 30.3 °F 33.8 °F 87% 30.00 in 10.0 mi North 10.4 mph - N/A   Overcast
1:55 AM 37.2 °F 31.9 °F 31.8 °F 81% 30.02 in 10.0 mi NNE 6.9 mph - 0.00 in   Overcast
2:55 AM 35.1 °F 29.3 °F 29.5 °F 80% 30.01 in 10.0 mi NNE 6.9 mph - N/A   Overcast
3:55 AM 34.3 °F 29.2 °F 28.2 °F 78% 30.01 in 10.0 mi North 5.8 mph - N/A   Overcast
4:55 AM 33.4 °F 29.1 °F 27.7 °F 79% 30.02 in 10.0 mi Variable 4.6 mph - N/A   Overcast
5:55 AM 33.1 °F - 27.5 °F 80% 30.02 in 10.0 mi Calm Calm - N/A   Overcast
6:55 AM 33.1 °F - 27.9 °F 81% 30.02 in 10.0 mi Calm Calm - N/A   Overcast
7:55 AM 33.3 °F 30.2 °F 28.2 °F 82% 30.05 in 10.0 mi ESE 3.5 mph - N/A   Overcast
8:55 AM 34.2 °F 31.2 °F 28.2 °F 79% 30.05 in 10.0 mi SSE 3.5 mph - N/A   Mostly Cloudy
9:22 AM 35.6 °F 31.7 °F 28.4 °F 75% 30.05 in 10.0 mi SSE 4.6 mph - N/A   Mostly Cloudy
9:35 AM 35.6 °F 32.8 °F 28.4 °F 75% 30.05 in 10.0 mi SE 3.5 mph - N/A   Scattered Clouds
9:43 AM 35.6 °F - 28.4 °F 75% 30.05 in 10.0 mi Calm Calm - N/A   Mostly Cloudy
9:55 AM 34.5 °F 31.6 °F 29.7 °F 82% 30.05 in 6.0 mi SE 3.5 mph - 0.00 in Snow Light Snow
10:14 AM 33.8 °F 30.8 °F 30.2 °F 87% 30.05 in 8.0 mi South 3.5 mph - N/A Snow Light Snow
10:30 AM 33.8 °F 28.6 °F 32.0 °F 93% 30.04 in 10.0 mi SSE 5.8 mph - N/A Snow Light Snow
10:40 AM 33.8 °F 29.6 °F 32.0 °F 93% 30.04 in 9.0 mi SSE 4.6 mph - N/A Snow Light Snow
10:47 AM 33.8 °F 30.8 °F 32.0 °F 93% 30.04 in 9.0 mi SE 3.5 mph - N/A   Overcast
10:55 AM 34.2 °F - 31.5 °F 90% 30.04 in 9.0 mi Calm Calm - 0.00 in   Overcast
11:12 AM 33.8 °F - 32.0 °F 93% 30.03 in 10.0 mi Calm Calm - N/A   Overcast
11:14 AM 33.8 °F 30.8 °F 32.0 °F 93% 30.03 in 10.0 mi South 3.5 mph - N/A Rain Light Rain
11:16 AM 33.8 °F 30.8 °F 32.0 °F 93% 30.03 in 10.0 mi SSE 3.5 mph - N/A Rain Light Rain
11:22 AM 33.8 °F - 32.0 °F 93% 30.03 in 6.0 mi Calm Calm - N/A Snow Light Snow
11:31 AM 33.8 °F - 32.0 °F 93% 30.03 in 2.5 mi Calm Calm - N/A Snow Light Snow
11:35 AM 33.8 °F - 32.0 °F 93% 30.03 in 2.5 mi Calm Calm - N/A Snow Light Snow
11:36 AM 33.8 °F - 32.0 °F 93% 30.03 in 2.5 mi Calm Calm - N/A Snow Light Snow
11:37 AM 33.8 °F - 32.0 °F 93% 30.03 in 2.5 mi Calm Calm - N/A Snow Light Snow
11:38 AM 33.8 °F - 32.0 °F 93% 30.03 in 2.0 mi Calm Calm - N/A Snow Light Snow
11:39 AM 33.8 °F - 32.0 °F 93% 30.03 in 2.0 mi Calm Calm - N/A Snow Light Snow
11:43 AM 33.8 °F - 32.0 °F 93% 30.03 in 2.5 mi Calm Calm - N/A Snow Light Snow
11:44 AM 33.8 °F - 32.0 °F 93% 30.03 in 2.5 mi Calm Calm - N/A Snow Light Snow
11:51 AM 33.8 °F - 32.0 °F 93% 30.02 in 2.0 mi Calm Calm - N/A Snow Light Snow
11:55 AM 33.3 °F - 31.8 °F 94% 30.02 in 2.0 mi Calm Calm - 0.01 in Snow Light Snow
11:57 AM 33.8 °F - 32.0 °F 93% 30.02 in 1.8 mi Calm Calm - N/A Snow Light Snow
12:03 PM 33.8 °F - 32.0 °F 93% 30.02 in 1.5 mi Calm Calm - N/A Snow Light Snow
12:12 PM 33.8 °F - 32.0 °F 93% 30.02 in 1.8 mi Calm Calm - N/A Snow Light Snow
12:14 PM 33.8 °F - 32.0 °F 93% 30.02 in 2.0 mi Calm Calm - N/A Snow Light Snow
12:18 PM 33.8 °F - 32.0 °F 93% 30.03 in 2.5 mi Calm Calm - N/A Snow Light Snow
12:24 PM 33.8 °F - 32.0 °F 93% 30.03 in 3.0 mi Calm Calm - N/A Snow Light Snow
12:55 PM 33.6 °F 30.6 °F 32.5 °F 96% 30.03 in 5.0 mi East 3.5 mph - 0.01 in Snow Light Snow
1:55 PM 33.8 °F 30.8 °F 32.5 °F 95% 30.03 in 6.0 mi ENE 3.5 mph - 0.01 in Snow Light Snow
2:55 PM 33.4 °F 29.1 °F 32.4 °F 96% 30.05 in 5.0 mi ESE 4.6 mph - 0.01 in Snow Light Snow
3:30 PM 33.8 °F 30.8 °F 32.0 °F 93% 30.07 in 10.0 mi East 3.5 mph - N/A   Overcast
3:50 PM 33.8 °F - 32.0 °F 93% 30.08 in 9.0 mi Calm Calm - N/A Rain Light Rain
3:55 PM 33.4 °F - 32.4 °F 96% 30.09 in 7.0 mi Calm Calm - 0.00 in Rain Light Rain
4:19 PM 33.8 °F - 32.0 °F 93% 30.09 in 2.5 mi Calm Calm - N/A Snow Light Snow
4:26 PM 33.8 °F - 32.0 °F 93% 30.09 in 3.0 mi Calm Calm - N/A Snow Light Snow
4:50 PM 32.0 °F 24.8 °F 32.0 °F 100% 30.10 in 3.0 mi NE 8.1 mph - N/A Snow Light Snow
4:52 PM 32.0 °F 24.8 °F 32.0 °F 100% 30.10 in 2.5 mi NNE 8.1 mph - N/A Snow Light Snow
4:53 PM 32.0 °F 24.2 °F 32.0 °F 100% 30.11 in 2.5 mi NNE 9.2 mph - N/A Snow Light Snow
4:55 PM 32.5 °F 24.8 °F 30.9 °F 94% 30.11 in 2.5 mi NNE 9.2 mph - 0.01 in Snow Light Snow
4:59 PM 32.0 °F 24.8 °F 30.2 °F 93% 30.12 in 2.5 mi NNE 8.1 mph - N/A Snow Light Snow
5:00 PM 32.0 °F 24.8 °F 30.2 °F 93% 30.12 in 3.0 mi NNE 8.1 mph - N/A Snow Light Snow
5:01 PM 32.0 °F 24.2 °F 30.2 °F 93% 30.12 in 3.0 mi North 9.2 mph - N/A Snow Light Snow
5:13 PM 32.0 °F 25.6 °F 30.2 °F 93% 30.13 in 4.0 mi NNE 6.9 mph - N/A   Overcast
5:17 PM 32.0 °F 24.8 °F 30.2 °F 93% 30.13 in 4.0 mi NNE 8.1 mph - N/A   Overcast
5:19 PM 32.0 °F 24.8 °F 30.2 °F 93% 30.13 in 4.0 mi North 8.1 mph - N/A   Overcast
5:20 PM 32.0 °F 24.8 °F 30.2 °F 93% 30.13 in 4.0 mi North 8.1 mph - N/A   Overcast
5:26 PM 32.0 °F 23.0 °F 30.2 °F 93% 30.13 in 4.0 mi North 11.5 mph - N/A   Overcast
5:55 PM 31.3 °F 22.7 °F 28.8 °F 90% 30.14 in 10.0 mi North 10.4 mph - 0.01 in   Overcast
5:58 PM 32.0 °F 24.2 °F 28.4 °F 87% 30.14 in 10.0 mi North 9.2 mph - N/A   Overcast
6:26 PM 32.0 °F 23.6 °F 30.2 °F 93% 30.15 in 5.0 mi NE 10.4 mph - N/A   Overcast
6:31 PM 32.0 °F 24.2 °F 30.2 °F 93% 30.15 in 6.0 mi NNE 9.2 mph - N/A   Overcast
6:55 PM 31.1 °F 23.1 °F 28.9 °F 92% 30.16 in 10.0 mi North 9.2 mph - N/A   Overcast
7:15 PM 32.0 °F 25.6 °F 28.4 °F 87% 30.18 in 10.0 mi North 6.9 mph - N/A   Overcast
7:17 PM 32.0 °F 25.6 °F 30.2 °F 93% 30.18 in 9.0 mi NNW 6.9 mph - N/A   Overcast
7:19 PM 30.2 °F 23.4 °F 30.2 °F 100% 30.19 in 8.0 mi NNW 6.9 mph - N/A   Overcast
7:21 PM 30.2 °F 22.6 °F 28.4 °F 93% 30.19 in 6.0 mi NNW 8.1 mph - N/A   Overcast
7:37 PM 30.2 °F 23.4 °F 28.4 °F 93% 30.19 in 5.0 mi North 6.9 mph - N/A   Overcast
7:40 PM 30.2 °F 23.4 °F 28.4 °F 93% 30.19 in 6.0 mi North 6.9 mph - N/A   Overcast
7:55 PM 30.4 °F 22.9 °F 28.9 °F 94% 30.20 in 5.0 mi NNW 8.1 mph - N/A   Overcast
8:02 PM 30.2 °F 23.4 °F 28.4 °F 93% 30.20 in 7.0 mi NNW 6.9 mph - N/A   Overcast
8:10 PM 30.2 °F 24.3 °F 28.4 °F 93% 30.21 in 6.0 mi NNW 5.8 mph - N/A   Overcast
8:23 PM 30.2 °F 21.9 °F 28.4 °F 93% 30.21 in 7.0 mi NNW 9.2 mph - N/A   Overcast
8:55 PM 30.0 °F 23.2 °F 28.4 °F 94% 30.23 in 3.0 mi NW 6.9 mph - N/A   Overcast
9:02 PM 30.2 °F 22.6 °F 28.4 °F 93% 30.22 in 2.5 mi NNW 8.1 mph - N/A   Overcast
9:03 PM 30.2 °F 22.6 °F 28.4 °F 93% 30.22 in 2.5 mi NNW 8.1 mph - N/A   Overcast
9:07 PM 30.2 °F 21.9 °F 28.4 °F 93% 30.23 in 2.5 mi NNW 9.2 mph - N/A   Overcast
9:15 PM 30.2 °F 22.6 °F 28.4 °F 93% 30.22 in 2.5 mi NNW 8.1 mph - N/A   Overcast
9:16 PM 30.2 °F 22.6 °F 28.4 °F 93% 30.22 in 3.0 mi NNW 8.1 mph - N/A   Overcast
9:22 PM 30.2 °F 23.4 °F 28.4 °F 93% 30.22 in 4.0 mi North 6.9 mph - N/A   Overcast
9:23 PM 30.2 °F 23.4 °F 28.4 °F 93% 30.22 in 4.0 mi NNW 6.9 mph - N/A   Overcast
9:26 PM 30.2 °F 24.3 °F 28.4 °F 93% 30.23 in 4.0 mi NNW 5.8 mph - N/A   Overcast
9:32 PM 30.2 °F 23.4 °F 28.4 °F 93% 30.23 in 4.0 mi NNW 6.9 mph - N/A   Overcast
9:36 PM 30.2 °F 22.6 °F 28.4 °F 93% 30.23 in 4.0 mi NNW 8.1 mph - N/A   Overcast
9:55 PM 29.7 °F 21.3 °F 28.2 °F 94% 30.24 in 4.0 mi NNW 9.2 mph - N/A   Overcast
9:58 PM 30.2 °F 21.3 °F 28.4 °F 93% 30.24 in 4.0 mi NNW 10.4 mph - N/A   Overcast
10:10 PM 30.2 °F 21.9 °F 28.4 °F 93% 30.25 in 5.0 mi NNW 9.2 mph - N/A   Overcast
10:12 PM 30.2 °F 22.6 °F 28.4 °F 93% 30.25 in 5.0 mi NNW 8.1 mph - N/A   Overcast
10:51 PM 28.4 °F 19.7 °F 26.6 °F 93% 30.25 in 2.5 mi NE 9.2 mph - N/A   Overcast
10:55 PM 28.0 °F 18.6 °F 26.2 °F 93% 30.26 in 2.5 mi ENE 10.4 mph - N/A   Overcast
10:56 PM 28.4 °F 19.7 °F 26.6 °F 93% 30.26 in 2.0 mi ENE 9.2 mph - N/A   Overcast
10:57 PM 28.4 °F 20.4 °F 26.6 °F 93% 30.27 in 2.5 mi ENE 8.1 mph - N/A   Overcast
11:01 PM 26.6 °F 17.5 °F 26.6 °F 100% 30.27 in 2.5 mi NE 9.2 mph - N/A   Overcast
11:02 PM 26.6 °F 16.8 °F 26.6 °F 100% 30.27 in 3.0 mi NE 10.4 mph - N/A   Overcast
11:04 PM 26.6 °F 16.8 °F 26.6 °F 100% 30.27 in 3.0 mi NE 10.4 mph - N/A   Overcast
11:52 PM 26.6 °F 19.1 °F 24.8 °F 93% 30.29 in 5.0 mi NE 6.9 mph - N/A   Overcast
11:55 PM 25.9 °F 18.2 °F 24.1 °F 93% 30.29 in 5.0 mi NE 6.9 mph - N/A   Overcast